Location: Cicognara
(44.9500°N, 10.4667°E)
Time: 06:54:15
(UTC+00:00)

USA 32 - Pass Details

Date: 20 June 2021
Orbit: 777 x 783 km, 85.0° (Epoch: 15 July)

Event Time Altitude Azimuth Distance (km) Brightness Sun altitude
Rises 22:44:15 0° 357° (N) 3,275 8.8 -21.1°
Reaches altitude 10° 22:46:38 10° 0° (N) 2,341 7.7 -21.2°
Maximum altitude 22:51:52 66° 83° (E) 849 4.1 -21.3°
Enters shadow 22:53:23 44° 147° (SSE) 1,062 4.3 -21.3°
